Location: ?ejeti?ky
(50.4060°N, 14.9016°E)
Time: 11:15:12
(UTC+00:00)

STARLINK-1282 - Pass Details

Date: 03 October 2020
Orbit: 549 x 550 km, 53.0° (Epoch: 21 October)

Event Time Altitude Azimuth Distance (km) Brightness Sun altitude
Exits shadow 04:10:37 - 225° (SW) 2,175 6.2 -9.4°
Reaches altitude 10° 04:11:32 10° 222° (SW) 1,817 5.8 -9.2°
Maximum altitude 04:15:31 48° 148° (SSE) 727 4.5 -8.6°
Drops below altitude 10° 04:19:30 10° 74° (ENE) 1,826 7.8 -7.9°
Sets 04:21:48 0° 69° (ENE) 2,723 8.8 -7.6°
